<?xml version="1.0" encoding="UTF-8" standalone="no" ?>
<gpx xmlns="http://www.topografix.com/GPX/1/1" xmlns:xsi="http://www.w3.org/2001/XMLSchema-instance" xsi:schemaLocation="http://www.topografix.com/GPX/1/1 http://www.topografix.com/GPX/1/1/gpx.xsd" version="1.1" creator="VisuGPX - https://www.visugpx.com">
  <metadata>
    <name>circuits VTT</name>
  </metadata>
  <trk>
    <name><![CDATA[02 L Ile St Martin - TraceGps issued]]></name>
    <extensions>
      <line xmlns="http://www.topografix.com/GPX/gpx_style/0/2">
        <color>00FF00</color>
        <width>4</width>
      </line>
    </extensions>
    <trkseg>
      <trkpt lat="43.10845" lon="3.08993">
        <ele>0.355734</ele>
        <time>2009-01-09T12:58:51Z</time>
      </trkpt>
      <trkpt lat="43.1085" lon="3.08963">
        <ele>0.144254</ele>
        <time>2009-01-09T12:58:51Z</time>
      </trkpt>
      <trkpt lat="43.10781" lon="3.08793">
        <ele>1.463334</ele>
        <time>2009-01-09T12:58:51Z</time>
      </trkpt>
      <trkpt lat="43.10868" lon="3.08669">
        <ele>0.625119</ele>
        <time>2009-01-09T12:58:51Z</time>
      </trkpt>
      <trkpt lat="43.10902" lon="3.08525">
        <ele>0.913413</ele>
        <time>2009-01-09T12:58:51Z</time>
      </trkpt>
      <trkpt lat="43.10903" lon="3.08482">
        <ele>0.784353</ele>
        <time>2009-01-09T12:58:51Z</time>
      </trkpt>
      <trkpt lat="43.10883" lon="3.08457">
        <ele>1.55484</ele>
        <time>2009-01-09T12:58:51Z</time>
      </trkpt>
      <trkpt lat="43.10883" lon="3.0839">
        <ele>0.700375</ele>
        <time>2009-01-09T12:58:51Z</time>
      </trkpt>
      <trkpt lat="43.1085" lon="3.08319">
        <ele>1.187405</ele>
        <time>2009-01-09T12:58:51Z</time>
      </trkpt>
      <trkpt lat="43.10823" lon="3.08297">
        <ele>1.382491</ele>
        <time>2009-01-09T12:58:51Z</time>
      </trkpt>
      <trkpt lat="43.1076" lon="3.08281">
        <ele>2.133277</ele>
        <time>2009-01-09T12:58:51Z</time>
      </trkpt>
      <trkpt lat="43.10731" lon="3.08265">
        <ele>1.64405</ele>
        <time>2009-01-09T12:58:51Z</time>
      </trkpt>
      <trkpt lat="43.10691" lon="3.08286">
        <ele>1.89143</ele>
        <time>2009-01-09T12:58:51Z</time>
      </trkpt>
      <trkpt lat="43.10625" lon="3.08347">
        <ele>2.095718</ele>
        <time>2009-01-09T12:58:51Z</time>
      </trkpt>
      <trkpt lat="43.10557" lon="3.08398">
        <ele>1.075076</ele>
        <time>2009-01-09T12:58:51Z</time>
      </trkpt>
      <trkpt lat="43.10546" lon="3.08429">
        <ele>1.32482</ele>
        <time>2009-01-09T12:58:51Z</time>
      </trkpt>
      <trkpt lat="43.10537" lon="3.08468">
        <ele>1.523253</ele>
        <time>2009-01-09T12:58:51Z</time>
      </trkpt>
      <trkpt lat="43.10469" lon="3.08437">
        <ele>0.260072</ele>
        <time>2009-01-09T12:58:51Z</time>
      </trkpt>
      <trkpt lat="43.10495" lon="3.08336">
        <ele>0.426636</ele>
        <time>2009-01-09T12:58:51Z</time>
      </trkpt>
      <trkpt lat="43.10534" lon="3.0822">
        <ele>0.576645</ele>
        <time>2009-01-09T12:58:51Z</time>
      </trkpt>
      <trkpt lat="43.10566" lon="3.08156">
        <ele>0.743745</ele>
        <time>2009-01-09T12:58:51Z</time>
      </trkpt>
      <trkpt lat="43.106" lon="3.0811">
        <ele>0.6492</ele>
        <time>2009-01-09T12:58:51Z</time>
      </trkpt>
      <trkpt lat="43.10625" lon="3.08065">
        <ele>0.576688</ele>
        <time>2009-01-09T12:58:51Z</time>
      </trkpt>
      <trkpt lat="43.10659" lon="3.08007">
        <ele>0.2466</ele>
        <time>2009-01-09T12:58:51Z</time>
      </trkpt>
      <trkpt lat="43.107" lon="3.07949">
        <ele>0.248298</ele>
        <time>2009-01-09T12:58:51Z</time>
      </trkpt>
      <trkpt lat="43.10761" lon="3.07877">
        <ele>1</ele>
        <time>2009-01-09T12:58:51Z</time>
      </trkpt>
      <trkpt lat="43.10811" lon="3.07785">
        <ele>0.972944</ele>
        <time>2009-01-09T12:58:51Z</time>
      </trkpt>
      <trkpt lat="43.10863" lon="3.07694">
        <ele>1.301899</ele>
        <time>2009-01-09T12:58:51Z</time>
      </trkpt>
      <trkpt lat="43.10911" lon="3.07621">
        <ele>3.296601</ele>
        <time>2009-01-09T12:58:51Z</time>
      </trkpt>
      <trkpt lat="43.10954" lon="3.07542">
        <ele>3.911541</ele>
        <time>2009-01-09T12:58:51Z</time>
      </trkpt>
      <trkpt lat="43.10966" lon="3.07465">
        <ele>3.368113</ele>
        <time>2009-01-09T12:58:51Z</time>
      </trkpt>
      <trkpt lat="43.10989" lon="3.07309">
        <ele>0.866952</ele>
        <time>2009-01-09T12:58:51Z</time>
      </trkpt>
      <trkpt lat="43.11018" lon="3.07116">
        <ele>0.898247</ele>
        <time>2009-01-09T12:58:51Z</time>
      </trkpt>
      <trkpt lat="43.11039" lon="3.0693">
        <ele>1.94673</ele>
        <time>2009-01-09T12:58:51Z</time>
      </trkpt>
      <trkpt lat="43.11058" lon="3.0685">
        <ele>1.529868</ele>
        <time>2009-01-09T12:58:51Z</time>
      </trkpt>
      <trkpt lat="43.11058" lon="3.06798">
        <ele>0.873224</ele>
        <time>2009-01-09T12:58:51Z</time>
      </trkpt>
      <trkpt lat="43.11074" lon="3.06734">
        <ele>0.851725</ele>
        <time>2009-01-09T12:58:51Z</time>
      </trkpt>
      <trkpt lat="43.11073" lon="3.06645">
        <ele>1</ele>
        <time>2009-01-09T12:58:51Z</time>
      </trkpt>
      <trkpt lat="43.11084" lon="3.06578">
        <ele>1</ele>
        <time>2009-01-09T12:58:51Z</time>
      </trkpt>
      <trkpt lat="43.11066" lon="3.06559">
        <ele>1</ele>
        <time>2009-01-09T12:58:51Z</time>
      </trkpt>
      <trkpt lat="43.10987" lon="3.06417">
        <ele>1.545017</ele>
        <time>2009-01-09T12:58:51Z</time>
      </trkpt>
      <trkpt lat="43.10994" lon="3.06322">
        <ele>1</ele>
        <time>2009-01-09T12:58:51Z</time>
      </trkpt>
      <trkpt lat="43.10848" lon="3.06339">
        <ele>2.422819</ele>
        <time>2009-01-09T12:58:51Z</time>
      </trkpt>
      <trkpt lat="43.10836" lon="3.06372">
        <ele>4.011153</ele>
        <time>2009-01-09T12:58:51Z</time>
      </trkpt>
      <trkpt lat="43.10816" lon="3.06406">
        <ele>7.543878</ele>
        <time>2009-01-09T12:58:51Z</time>
      </trkpt>
      <trkpt lat="43.108" lon="3.0643">
        <ele>9.779621</ele>
        <time>2009-01-09T12:58:51Z</time>
      </trkpt>
      <trkpt lat="43.10778" lon="3.0643">
        <ele>9.813315</ele>
        <time>2009-01-09T12:58:51Z</time>
      </trkpt>
      <trkpt lat="43.10764" lon="3.06479">
        <ele>12.39563</ele>
        <time>2009-01-09T12:58:51Z</time>
      </trkpt>
      <trkpt lat="43.10754" lon="3.06528">
        <ele>11.667522</ele>
        <time>2009-01-09T12:58:51Z</time>
      </trkpt>
      <trkpt lat="43.10752" lon="3.06586">
        <ele>13.671921</ele>
        <time>2009-01-09T12:58:51Z</time>
      </trkpt>
      <trkpt lat="43.10736" lon="3.06586">
        <ele>14.97436</ele>
        <time>2009-01-09T12:58:51Z</time>
      </trkpt>
      <trkpt lat="43.10703" lon="3.06527">
        <ele>20.771101</ele>
        <time>2009-01-09T12:58:51Z</time>
      </trkpt>
      <trkpt lat="43.10647" lon="3.06489">
        <ele>28.077854</ele>
        <time>2009-01-09T12:58:51Z</time>
      </trkpt>
      <trkpt lat="43.10635" lon="3.06557">
        <ele>28.245155</ele>
        <time>2009-01-09T12:58:51Z</time>
      </trkpt>
      <trkpt lat="43.10619" lon="3.06578">
        <ele>28.610518</ele>
        <time>2009-01-09T12:58:51Z</time>
      </trkpt>
      <trkpt lat="43.10588" lon="3.0659">
        <ele>28.995665</ele>
        <time>2009-01-09T12:58:51Z</time>
      </trkpt>
      <trkpt lat="43.10561" lon="3.06608">
        <ele>28.869011</ele>
        <time>2009-01-09T12:58:51Z</time>
      </trkpt>
      <trkpt lat="43.10529" lon="3.06614">
        <ele>29.848074</ele>
        <time>2009-01-09T12:58:51Z</time>
      </trkpt>
      <trkpt lat="43.1046" lon="3.06585">
        <ele>39.018509</ele>
        <time>2009-01-09T12:58:51Z</time>
      </trkpt>
      <trkpt lat="43.10426" lon="3.06606">
        <ele>39.708885</ele>
        <time>2009-01-09T12:58:51Z</time>
      </trkpt>
      <trkpt lat="43.10399" lon="3.06649">
        <ele>39.634304</ele>
        <time>2009-01-09T12:58:51Z</time>
      </trkpt>
      <trkpt lat="43.10363" lon="3.06667">
        <ele>38.916885</ele>
        <time>2009-01-09T12:58:51Z</time>
      </trkpt>
      <trkpt lat="43.10344" lon="3.06694">
        <ele>38.665695</ele>
        <time>2009-01-09T12:58:51Z</time>
      </trkpt>
      <trkpt lat="43.10348" lon="3.06789">
        <ele>37.318371</ele>
        <time>2009-01-09T12:58:51Z</time>
      </trkpt>
      <trkpt lat="43.10319" lon="3.0678">
        <ele>35.947769</ele>
        <time>2009-01-09T12:58:51Z</time>
      </trkpt>
      <trkpt lat="43.10288" lon="3.06752">
        <ele>36.876553</ele>
        <time>2009-01-09T12:58:51Z</time>
      </trkpt>
      <trkpt lat="43.10252" lon="3.06736">
        <ele>37.54221</ele>
        <time>2009-01-09T12:58:51Z</time>
      </trkpt>
      <trkpt lat="43.10209" lon="3.06741">
        <ele>33.635178</ele>
        <time>2009-01-09T12:58:51Z</time>
      </trkpt>
      <trkpt lat="43.10171" lon="3.06726">
        <ele>32.455406</ele>
        <time>2009-01-09T12:58:51Z</time>
      </trkpt>
      <trkpt lat="43.10138" lon="3.06698">
        <ele>32.470184</ele>
        <time>2009-01-09T12:58:51Z</time>
      </trkpt>
      <trkpt lat="43.10106" lon="3.06685">
        <ele>32.658657</ele>
        <time>2009-01-09T12:58:51Z</time>
      </trkpt>
      <trkpt lat="43.10082" lon="3.06672">
        <ele>33.682781</ele>
        <time>2009-01-09T12:58:51Z</time>
      </trkpt>
      <trkpt lat="43.10051" lon="3.06638">
        <ele>38.430725</ele>
        <time>2009-01-09T12:58:51Z</time>
      </trkpt>
      <trkpt lat="43.10015" lon="3.06607">
        <ele>42.987793</ele>
        <time>2009-01-09T12:58:51Z</time>
      </trkpt>
      <trkpt lat="43.09993" lon="3.06592">
        <ele>44.241386</ele>
        <time>2009-01-09T12:58:51Z</time>
      </trkpt>
      <trkpt lat="43.09968" lon="3.06582">
        <ele>44.99519</ele>
        <time>2009-01-09T12:58:51Z</time>
      </trkpt>
      <trkpt lat="43.09932" lon="3.06591">
        <ele>44.093346</ele>
        <time>2009-01-09T12:58:51Z</time>
      </trkpt>
      <trkpt lat="43.0988" lon="3.06587">
        <ele>39.076622</ele>
        <time>2009-01-09T12:58:51Z</time>
      </trkpt>
      <trkpt lat="43.09833" lon="3.0658">
        <ele>37.048637</ele>
        <time>2009-01-09T12:58:51Z</time>
      </trkpt>
      <trkpt lat="43.09797" lon="3.06546">
        <ele>41.395756</ele>
        <time>2009-01-09T12:58:51Z</time>
      </trkpt>
      <trkpt lat="43.09773" lon="3.06512">
        <ele>47.817162</ele>
        <time>2009-01-09T12:58:51Z</time>
      </trkpt>
      <trkpt lat="43.09758" lon="3.06451">
        <ele>54.246696</ele>
        <time>2009-01-09T12:58:51Z</time>
      </trkpt>
      <trkpt lat="43.09731" lon="3.06392">
        <ele>59.043182</ele>
        <time>2009-01-09T12:58:51Z</time>
      </trkpt>
      <trkpt lat="43.09704" lon="3.06343">
        <ele>59.524033</ele>
        <time>2009-01-09T12:58:51Z</time>
      </trkpt>
      <trkpt lat="43.09684" lon="3.06382">
        <ele>56.84787</ele>
        <time>2009-01-09T12:58:51Z</time>
      </trkpt>
      <trkpt lat="43.09652" lon="3.06452">
        <ele>52.311893</ele>
        <time>2009-01-09T12:58:51Z</time>
      </trkpt>
      <trkpt lat="43.09643" lon="3.06501">
        <ele>47.50135</ele>
        <time>2009-01-09T12:58:51Z</time>
      </trkpt>
      <trkpt lat="43.09622" lon="3.06584">
        <ele>35.746273</ele>
        <time>2009-01-09T12:58:51Z</time>
      </trkpt>
      <trkpt lat="43.09614" lon="3.0678">
        <ele>28.723295</ele>
        <time>2009-01-09T12:58:51Z</time>
      </trkpt>
      <trkpt lat="43.09553" lon="3.06782">
        <ele>26.150164</ele>
        <time>2009-01-09T12:58:51Z</time>
      </trkpt>
      <trkpt lat="43.09495" lon="3.06766">
        <ele>24.745386</ele>
        <time>2009-01-09T12:58:51Z</time>
      </trkpt>
      <trkpt lat="43.09441" lon="3.06781">
        <ele>24.776752</ele>
        <time>2009-01-09T12:58:51Z</time>
      </trkpt>
      <trkpt lat="43.09405" lon="3.0678">
        <ele>23.976498</ele>
        <time>2009-01-09T12:58:51Z</time>
      </trkpt>
      <trkpt lat="43.09362" lon="3.06795">
        <ele>22.876534</ele>
        <time>2009-01-09T12:58:51Z</time>
      </trkpt>
      <trkpt lat="43.09344" lon="3.06783">
        <ele>21.728325</ele>
        <time>2009-01-09T12:58:51Z</time>
      </trkpt>
      <trkpt lat="43.09338" lon="3.06749">
        <ele>21.024878</ele>
        <time>2009-01-09T12:58:51Z</time>
      </trkpt>
      <trkpt lat="43.09291" lon="3.06727">
        <ele>19.624994</ele>
        <time>2009-01-09T12:58:51Z</time>
      </trkpt>
      <trkpt lat="43.09262" lon="3.06711">
        <ele>19.29673</ele>
        <time>2009-01-09T12:58:51Z</time>
      </trkpt>
      <trkpt lat="43.09228" lon="3.06714">
        <ele>19.196653</ele>
        <time>2009-01-09T12:58:51Z</time>
      </trkpt>
      <trkpt lat="43.09228" lon="3.06665">
        <ele>20.796589</ele>
        <time>2009-01-09T12:58:51Z</time>
      </trkpt>
      <trkpt lat="43.09188" lon="3.06633">
        <ele>20.6418</ele>
        <time>2009-01-09T12:58:51Z</time>
      </trkpt>
      <trkpt lat="43.09137" lon="3.06602">
        <ele>19.935942</ele>
        <time>2009-01-09T12:58:51Z</time>
      </trkpt>
      <trkpt lat="43.09029" lon="3.06579">
        <ele>16.425772</ele>
        <time>2009-01-09T12:58:51Z</time>
      </trkpt>
      <trkpt lat="43.0894" lon="3.06502">
        <ele>13.016968</ele>
        <time>2009-01-09T12:58:51Z</time>
      </trkpt>
      <trkpt lat="43.0881" lon="3.06469">
        <ele>11.993235</ele>
        <time>2009-01-09T12:58:51Z</time>
      </trkpt>
      <trkpt lat="43.08664" lon="3.06425">
        <ele>14.80992</ele>
        <time>2009-01-09T12:58:51Z</time>
      </trkpt>
      <trkpt lat="43.08646" lon="3.06443">
        <ele>11.660814</ele>
        <time>2009-01-09T12:58:51Z</time>
      </trkpt>
      <trkpt lat="43.08641" lon="3.06513">
        <ele>6.768361</ele>
        <time>2009-01-09T12:58:51Z</time>
      </trkpt>
      <trkpt lat="43.08632" lon="3.06559">
        <ele>5.321594</ele>
        <time>2009-01-09T12:58:51Z</time>
      </trkpt>
      <trkpt lat="43.08638" lon="3.06593">
        <ele>4.973307</ele>
        <time>2009-01-09T12:58:51Z</time>
      </trkpt>
      <trkpt lat="43.08658" lon="3.06599">
        <ele>5.064167</ele>
        <time>2009-01-09T12:58:51Z</time>
      </trkpt>
      <trkpt lat="43.08653" lon="3.06685">
        <ele>6.248458</ele>
        <time>2009-01-09T12:58:51Z</time>
      </trkpt>
      <trkpt lat="43.08648" lon="3.0674">
        <ele>8.253969</ele>
        <time>2009-01-09T12:58:51Z</time>
      </trkpt>
      <trkpt lat="43.0868" lon="3.06768">
        <ele>8.872561</ele>
        <time>2009-01-09T12:58:51Z</time>
      </trkpt>
      <trkpt lat="43.08725" lon="3.06769">
        <ele>8.89413</ele>
        <time>2009-01-09T12:58:51Z</time>
      </trkpt>
      <trkpt lat="43.08754" lon="3.06757">
        <ele>11.457026</ele>
        <time>2009-01-09T12:58:51Z</time>
      </trkpt>
      <trkpt lat="43.08769" lon="3.06763">
        <ele>13.608822</ele>
        <time>2009-01-09T12:58:51Z</time>
      </trkpt>
      <trkpt lat="43.08737" lon="3.06845">
        <ele>17.493431</ele>
        <time>2009-01-09T12:58:51Z</time>
      </trkpt>
      <trkpt lat="43.08719" lon="3.06906">
        <ele>22.463968</ele>
        <time>2009-01-09T12:58:51Z</time>
      </trkpt>
      <trkpt lat="43.0873" lon="3.06943">
        <ele>24.144388</ele>
        <time>2009-01-09T12:58:51Z</time>
      </trkpt>
      <trkpt lat="43.08739" lon="3.06989">
        <ele>25.365046</ele>
        <time>2009-01-09T12:58:51Z</time>
      </trkpt>
      <trkpt lat="43.08736" lon="3.07035">
        <ele>23.607151</ele>
        <time>2009-01-09T12:58:51Z</time>
      </trkpt>
      <trkpt lat="43.08714" lon="3.07053">
        <ele>20.380848</ele>
        <time>2009-01-09T12:58:51Z</time>
      </trkpt>
      <trkpt lat="43.08727" lon="3.07103">
        <ele>17.928112</ele>
        <time>2009-01-09T12:58:51Z</time>
      </trkpt>
      <trkpt lat="43.08733" lon="3.07161">
        <ele>12.862366</ele>
        <time>2009-01-09T12:58:51Z</time>
      </trkpt>
      <trkpt lat="43.08717" lon="3.07225">
        <ele>7.836071</ele>
        <time>2009-01-09T12:58:51Z</time>
      </trkpt>
      <trkpt lat="43.08748" lon="3.07222">
        <ele>7.968402</ele>
        <time>2009-01-09T12:58:51Z</time>
      </trkpt>
      <trkpt lat="43.08762" lon="3.07244">
        <ele>5.918506</ele>
        <time>2009-01-09T12:58:51Z</time>
      </trkpt>
      <trkpt lat="43.08782" lon="3.07266">
        <ele>3.723282</ele>
        <time>2009-01-09T12:58:51Z</time>
      </trkpt>
      <trkpt lat="43.08795" lon="3.07303">
        <ele>2.223457</ele>
        <time>2009-01-09T12:58:51Z</time>
      </trkpt>
      <trkpt lat="43.08822" lon="3.07294">
        <ele>2.080008</ele>
        <time>2009-01-09T12:58:51Z</time>
      </trkpt>
      <trkpt lat="43.08858" lon="3.07279">
        <ele>2.015851</ele>
        <time>2009-01-09T12:58:51Z</time>
      </trkpt>
      <trkpt lat="43.08896" lon="3.07292">
        <ele>2</ele>
        <time>2009-01-09T12:58:51Z</time>
      </trkpt>
      <trkpt lat="43.08927" lon="3.07323">
        <ele>2</ele>
        <time>2009-01-09T12:58:51Z</time>
      </trkpt>
      <trkpt lat="43.08959" lon="3.0736">
        <ele>2.111233</ele>
        <time>2009-01-09T12:58:51Z</time>
      </trkpt>
      <trkpt lat="43.08976" lon="3.07394">
        <ele>2</ele>
        <time>2009-01-09T12:58:51Z</time>
      </trkpt>
      <trkpt lat="43.08987" lon="3.07422">
        <ele>2</ele>
        <time>2009-01-09T12:58:51Z</time>
      </trkpt>
      <trkpt lat="43.09003" lon="3.07449">
        <ele>2.223302</ele>
        <time>2009-01-09T12:58:51Z</time>
      </trkpt>
      <trkpt lat="43.09009" lon="3.07477">
        <ele>2.373345</ele>
        <time>2009-01-09T12:58:51Z</time>
      </trkpt>
      <trkpt lat="43.09016" lon="3.07517">
        <ele>2.575009</ele>
        <time>2009-01-09T12:58:51Z</time>
      </trkpt>
      <trkpt lat="43.09013" lon="3.07584">
        <ele>3.688532</ele>
        <time>2009-01-09T12:58:51Z</time>
      </trkpt>
      <trkpt lat="43.08993" lon="3.07639">
        <ele>3.094548</ele>
        <time>2009-01-09T12:58:51Z</time>
      </trkpt>
      <trkpt lat="43.0895" lon="3.07657">
        <ele>2.07331</ele>
        <time>2009-01-09T12:58:51Z</time>
      </trkpt>
      <trkpt lat="43.08927" lon="3.07703">
        <ele>1.573222</ele>
        <time>2009-01-09T12:58:51Z</time>
      </trkpt>
      <trkpt lat="43.08907" lon="3.07742">
        <ele>1.123399</ele>
        <time>2009-01-09T12:58:51Z</time>
      </trkpt>
      <trkpt lat="43.08879" lon="3.07794">
        <ele>2.518193</ele>
        <time>2009-01-09T12:58:51Z</time>
      </trkpt>
      <trkpt lat="43.0885" lon="3.07824">
        <ele>2.848433</ele>
        <time>2009-01-09T12:58:51Z</time>
      </trkpt>
      <trkpt lat="43.08822" lon="3.07882">
        <ele>2.508939</ele>
        <time>2009-01-09T12:58:51Z</time>
      </trkpt>
      <trkpt lat="43.08843" lon="3.07901">
        <ele>3.349329</ele>
        <time>2009-01-09T12:58:51Z</time>
      </trkpt>
      <trkpt lat="43.08862" lon="3.07984">
        <ele>2.943149</ele>
        <time>2009-01-09T12:58:51Z</time>
      </trkpt>
      <trkpt lat="43.08891" lon="3.08">
        <ele>3.743383</ele>
        <time>2009-01-09T12:58:51Z</time>
      </trkpt>
      <trkpt lat="43.08911" lon="3.08061">
        <ele>2.669797</ele>
        <time>2009-01-09T12:58:51Z</time>
      </trkpt>
      <trkpt lat="43.08969" lon="3.08099">
        <ele>3.410637</ele>
        <time>2009-01-09T12:58:51Z</time>
      </trkpt>
      <trkpt lat="43.09007" lon="3.08203">
        <ele>0.748317</ele>
        <time>2009-01-09T12:58:51Z</time>
      </trkpt>
      <trkpt lat="43.09056" lon="3.08195">
        <ele>1.421596</ele>
        <time>2009-01-09T12:58:51Z</time>
      </trkpt>
      <trkpt lat="43.09108" lon="3.08195">
        <ele>2.503177</ele>
        <time>2009-01-09T12:58:51Z</time>
      </trkpt>
      <trkpt lat="43.09162" lon="3.08187">
        <ele>3.13869</ele>
        <time>2009-01-09T12:58:51Z</time>
      </trkpt>
      <trkpt lat="43.09207" lon="3.08151">
        <ele>5.511337</ele>
        <time>2009-01-09T12:58:51Z</time>
      </trkpt>
      <trkpt lat="43.09243" lon="3.08108">
        <ele>8.393611</ele>
        <time>2009-01-09T12:58:51Z</time>
      </trkpt>
      <trkpt lat="43.09277" lon="3.08026">
        <ele>11.381927</ele>
        <time>2009-01-09T12:58:51Z</time>
      </trkpt>
      <trkpt lat="43.09294" lon="3.07971">
        <ele>12.80206</ele>
        <time>2009-01-09T12:58:51Z</time>
      </trkpt>
      <trkpt lat="43.09303" lon="3.07922">
        <ele>16.050558</ele>
        <time>2009-01-09T12:58:51Z</time>
      </trkpt>
      <trkpt lat="43.0933" lon="3.07916">
        <ele>15.346803</ele>
        <time>2009-01-09T12:58:51Z</time>
      </trkpt>
      <trkpt lat="43.09356" lon="3.07963">
        <ele>12.721104</ele>
        <time>2009-01-09T12:58:51Z</time>
      </trkpt>
      <trkpt lat="43.09388" lon="3.08012">
        <ele>11.598231</ele>
        <time>2009-01-09T12:58:51Z</time>
      </trkpt>
      <trkpt lat="43.0941" lon="3.08068">
        <ele>9.518142</ele>
        <time>2009-01-09T12:58:51Z</time>
      </trkpt>
      <trkpt lat="43.0947" lon="3.08105">
        <ele>8.020828</ele>
        <time>2009-01-09T12:58:51Z</time>
      </trkpt>
      <trkpt lat="43.09528" lon="3.08133">
        <ele>7</ele>
        <time>2009-01-09T12:58:51Z</time>
      </trkpt>
      <trkpt lat="43.09575" lon="3.08162">
        <ele>6.89355</ele>
        <time>2009-01-09T12:58:51Z</time>
      </trkpt>
      <trkpt lat="43.096" lon="3.08214">
        <ele>5.338191</ele>
        <time>2009-01-09T12:58:51Z</time>
      </trkpt>
      <trkpt lat="43.09622" lon="3.08251">
        <ele>3.974901</ele>
        <time>2009-01-09T12:58:51Z</time>
      </trkpt>
      <trkpt lat="43.09678" lon="3.08261">
        <ele>2.542609</ele>
        <time>2009-01-09T12:58:51Z</time>
      </trkpt>
      <trkpt lat="43.09705" lon="3.08301">
        <ele>1.30631</ele>
        <time>2009-01-09T12:58:51Z</time>
      </trkpt>
      <trkpt lat="43.09711" lon="3.08347">
        <ele>1</ele>
        <time>2009-01-09T12:58:51Z</time>
      </trkpt>
      <trkpt lat="43.09701" lon="3.08442">
        <ele>1</ele>
        <time>2009-01-09T12:58:51Z</time>
      </trkpt>
      <trkpt lat="43.09789" lon="3.08452">
        <ele>0.873239</ele>
        <time>2009-01-09T12:58:51Z</time>
      </trkpt>
      <trkpt lat="43.09836" lon="3.08481">
        <ele>1</ele>
        <time>2009-01-09T12:58:51Z</time>
      </trkpt>
      <trkpt lat="43.0991" lon="3.08518">
        <ele>1</ele>
        <time>2009-01-09T12:58:51Z</time>
      </trkpt>
      <trkpt lat="43.09979" lon="3.08541">
        <ele>1.448392</ele>
        <time>2009-01-09T12:58:51Z</time>
      </trkpt>
      <trkpt lat="43.10049" lon="3.08523">
        <ele>1.748308</ele>
        <time>2009-01-09T12:58:51Z</time>
      </trkpt>
      <trkpt lat="43.1011" lon="3.08503">
        <ele>2.096061</ele>
        <time>2009-01-09T12:58:51Z</time>
      </trkpt>
      <trkpt lat="43.10186" lon="3.08473">
        <ele>2.432895</ele>
        <time>2009-01-09T12:58:51Z</time>
      </trkpt>
      <trkpt lat="43.10249" lon="3.08468">
        <ele>2.661134</ele>
        <time>2009-01-09T12:58:51Z</time>
      </trkpt>
      <trkpt lat="43.1033" lon="3.08444">
        <ele>1.637192</ele>
        <time>2009-01-09T12:58:51Z</time>
      </trkpt>
      <trkpt lat="43.10371" lon="3.08386">
        <ele>2.828757</ele>
        <time>2009-01-09T12:58:51Z</time>
      </trkpt>
      <trkpt lat="43.10443" lon="3.08427">
        <ele>0.745352</ele>
        <time>2009-01-09T12:58:51Z</time>
      </trkpt>
      <trkpt lat="43.10469" lon="3.08437">
        <ele>0.260072</ele>
        <time>2009-01-09T12:58:51Z</time>
      </trkpt>
    </trkseg>
  </trk>
</gpx>